{"data":{"norad_id":66901,"intl_designator":"2025-283Z","name":"STARLINK-36043","alt_names":[],"object_type":"PAYLOAD","status":"ACTIVE","operator":null,"country":"US","launch_date":"2025-12-04","launch_site_code":"AFWTR","launch_vehicle":null,"mission":null,"orbit_class":"UNKNOWN","rcs_meters":null,"size_class":null,"mass_kg":null,"dimensions":null,"purposes":["comms"],"wikipedia_slug":null,"has_3d_model":false,"image_url":null,"decayed_at":null,"tle_current":{"epoch":"2026-05-25T01:43:29.333856Z","epoch_age_seconds":62005,"freshness":"FRESH","line1":"1 66901U 25283Z   26145.07186729  .00033307  00000+0  99224-3 0  9994","line2":"2 66901  53.1615  29.0214 0000978  70.9782 289.1327 15.34409840 27548","mean_motion":15.3440984,"eccentricity":9.78e-5,"inclination_deg":53.1615,"raan_deg":29.0214,"arg_perigee_deg":70.9782,"mean_anomaly_deg":289.1327,"bstar":0.00099224,"rev_number":2754,"period_min":93.847156246078,"perigee_km":462.00496249452,"apogee_km":463.34302512491,"semimajor_km":6840.8109938097,"source":"CELESTRAK","updated_at":"2026-05-25T13:38:21.383136Z"}}}